TimeMDT,TemperatureF,Dew PointF,Humidity,Sea Level PressureIn,VisibilityMPH,Wind Direction,Wind SpeedMPH,Gust SpeedMPH,PrecipitationIn,Events,Conditions,WindDirDegrees,DateUTC
12:55 AM,50.0,39.2,66,30.18,10.0,NW,11.5,-,N/A,,Scattered Clouds,310,2013-05-09 06:55:00
1:55 AM,48.2,37.4,66,30.17,10.0,WNW,9.2,-,N/A,,Scattered Clouds,300,2013-05-09 07:55:00
2:15 AM,46.4,37.4,71,30.17,10.0,NW,10.4,-,N/A,,Clear,310,2013-05-09 08:15:00
3:55 AM,44.6,37.4,76,30.19,10.0,NNW,12.7,-,N/A,,Clear,330,2013-05-09 09:55:00
5:35 AM,42.8,35.6,76,30.19,10.0,NW,13.8,17.3,N/A,,Clear,320,2013-05-09 11:35:00
5:55 AM,42.8,35.6,76,30.19,10.0,NNW,11.5,-,N/A,,Clear,330,2013-05-09 11:55:00
6:15 AM,42.8,35.6,76,30.19,10.0,NW,13.8,-,N/A,,Clear,320,2013-05-09 12:15:00
6:47 AM,42.8,35.6,76,30.20,10.0,WNW,16.1,-,N/A,,Partly Cloudy,300,2013-05-09 12:47:00
7:49 AM,44.6,35.6,71,30.21,10.0,WNW,13.8,-,N/A,,Partly Cloudy,300,2013-05-09 13:49:00
8:50 AM,51.8,37.4,58,30.21,10.0,NW,9.2,-,N/A,,Partly Cloudy,320,2013-05-09 14:50:00
9:47 AM,57.2,37.4,48,30.21,10.0,Calm,Calm,-,N/A,,Partly Cloudy,0,2013-05-09 15:47:00
11:50 AM,64.4,39.2,40,30.19,10.0,ESE,11.5,-,N/A,,Scattered Clouds,120,2013-05-09 17:50:00
12:47 PM,64.4,39.2,40,30.18,10.0,East,10.4,-,N/A,,Mostly Cloudy,100,2013-05-09 18:47:00
1:47 PM,66.2,37.4,35,30.19,10.0,SE,11.5,-,N/A,,Mostly Cloudy,130,2013-05-09 19:47:00
2:50 PM,66.2,42.8,43,30.19,10.0,SE,8.1,-,N/A,,Mostly Cloudy,130,2013-05-09 20:50:00
3:47 PM,68.0,39.2,35,30.16,10.0,East,12.7,-,N/A,,Mostly Cloudy,100,2013-05-09 21:47:00
4:50 PM,71.6,39.2,31,30.14,10.0,WSW,10.4,17.3,N/A,,Scattered Clouds,240,2013-05-09 22:50:00
5:47 PM,69.8,37.4,31,30.13,10.0,South,4.6,-,N/A,,Scattered Clouds,190,2013-05-09 23:47:00
6:47 PM,69.8,37.4,31,30.16,10.0,North,20.7,29.9,N/A,Rain-Thunderstorm,Thunderstorms and Rain,360,2013-05-10 00:47:00
7:50 PM,60.8,44.6,55,30.17,10.0,North,8.1,-,N/A,,Mostly Cloudy,350,2013-05-10 01:50:00
8:50 PM,57.2,48.2,72,30.20,10.0,NW,4.6,-,N/A,,Mostly Cloudy,310,2013-05-10 02:50:00
9:47 PM,55.4,46.4,72,30.23,10.0,Calm,Calm,-,N/A,,Mostly Cloudy,0,2013-05-10 03:47:00
10:47 PM,53.6,46.4,77,30.25,10.0,West,5.8,-,N/A,,Mostly Cloudy,280,2013-05-10 04:47:00
11:15 PM,51.8,44.6,76,30.24,10.0,NW,5.8,-,N/A,,Mostly Cloudy,320,2013-05-10 05:15:00
11:35 PM,51.8,44.6,76,30.25,10.0,NW,8.1,-,N/A,,Clear,310,2013-05-10 05:35:00
11:55 PM,51.8,44.6,76,30.25,10.0,NW,8.1,-,N/A,,Clear,310,2013-05-10 05:55:00